Cameron, WI

1:07 AM CST on February 14, 2016 (GMT -0600)
Rice Lake Regional-Carl's

Weather History for KRPD - March, 2014

Change the Weather History Date:

Saturday, March 22, 2014

  Actual Average Record
Temperature  
Mean Temperature 18 °F -  
Max Temperature 27 °F 39 °F 64 °F (2012)
Min Temperature 8 °F 21 °F 0 °F (2013)
Degree Days  
Heating Degree Days 46    
Moisture  
Dew Point 4 °F    
Average Humidity 62    
Maximum Humidity 79    
Minimum Humidity 46    
Precipitation  
Precipitation 0.00 in - - ()
Sea Level Pressure  
Sea Level Pressure 30.30 in    
Wind  
Wind Speed 11 mph (WNW)    
Max Wind Speed 16 mph    
Max Gust Speed 23 mph    
Visibility 10 miles    
Events      
Averages and records for this station are not official NWS values.
T = Trace of Precipitation, MM = Missing Value Source: NWS Daily Summary

Daily Weather History Graph

Daily Weather History Graph

Search for Another Location

Airport or City:

Trip Planner

Search our weather history database for the weather conditions in past years. The results will help you decide how hot, cold, wet, or windy it might be!

Date:

Astronomy

Mar. 22, 2014 Rise Set
Actual Time 7:06 AM CDT 7:22 PM CDT
Civil Twilight 6:36 AM CDT 7:51 PM CDT
Nautical Twilight 6:02 AM CDT 8:26 PM CDT
Astronomical Twilight 5:26 AM CDT 9:02 PM CDT
Moon 12:55 AM CDT (3/22) 10:36 AM CDT (3/22)
Length of Visible Light 13h 15m
Length of Day
12h 15m
Waning Gibbous, 65% of the Moon is Illuminated
Mar 22
Waning Gibbous
Mar 23
Last Quarter
Mar 30
New
Apr 7
First Quarter
Apr 15
Full

Hourly Weather History & Observations

Time (CDT) Temp. Windchill Dew Point Humidity Pressure Visibility Wind Dir Wind Speed Gust Speed Precip Events Conditions
12:15 AM 29.8 °F 19.3 °F 23.9 °F 79% 30.04 in 10.0 mi NW 13.8 mph 20.7 mph N/A   Overcast
12:35 AM 29.1 °F 18.9 °F 23.0 °F 78% 30.06 in 10.0 mi WNW 12.7 mph 19.6 mph N/A   Overcast
12:55 AM 28.0 °F 18.6 °F 21.7 °F 77% 30.07 in 10.0 mi NW 10.4 mph 19.6 mph N/A   Overcast
1:15 AM 26.6 °F 16.2 °F 20.3 °F 77% 30.09 in 10.0 mi NW 11.5 mph 19.6 mph N/A   Overcast
1:35 AM 25.5 °F 14.9 °F 18.3 °F 74% 30.09 in 10.0 mi NW 11.5 mph 19.6 mph N/A   Overcast
1:55 AM 24.8 °F 12.9 °F 18.0 °F 75% 30.10 in 10.0 mi NW 13.8 mph 19.6 mph N/A   Overcast
2:15 AM 24.4 °F 12.4 °F 17.1 °F 73% 30.10 in 10.0 mi NW 13.8 mph 18.4 mph N/A   Overcast
2:35 AM 23.7 °F 10.5 °F 15.8 °F 72% 30.11 in 10.0 mi NW 16.1 mph 23.0 mph N/A   Overcast
2:55 AM 23.4 °F 12.8 °F 15.3 °F 71% 30.12 in 10.0 mi NW 10.4 mph 19.6 mph N/A   Overcast
3:15 AM 21.9 °F 9.2 °F 14.9 °F 74% 30.14 in 10.0 mi WNW 13.8 mph 17.3 mph N/A   Overcast
3:35 AM 19.8 °F 5.9 °F 12.7 °F 74% 30.14 in 10.0 mi WNW 15.0 mph 19.6 mph N/A   Overcast
3:55 AM 18.3 °F 7.3 °F 10.8 °F 72% 30.15 in 10.0 mi NW 9.2 mph 18.4 mph N/A   Overcast
4:15 AM 16.7 °F 6.2 °F 9.5 °F 73% 30.16 in 10.0 mi NW 8.1 mph 19.6 mph N/A   Scattered Clouds
4:35 AM 15.6 °F 3.2 °F 9.1 °F 76% 30.18 in 10.0 mi WNW 10.4 mph 16.1 mph N/A   Clear
4:55 AM 14.7 °F 2.1 °F 7.7 °F 74% 30.18 in 10.0 mi WNW 10.4 mph - N/A   Clear
5:15 AM 13.8 °F 1.8 °F 7.0 °F 74% 30.19 in 10.0 mi NW 9.2 mph 17.3 mph N/A   Clear
5:35 AM 12.9 °F 0.7 °F 6.1 °F 74% 30.20 in 10.0 mi NW 9.2 mph - N/A   Clear
5:55 AM 12.2 °F -0.2 °F 5.0 °F 73% 30.21 in 10.0 mi NW 9.2 mph - N/A   Clear
6:15 AM 11.3 °F 0.7 °F 4.1 °F 73% 30.22 in 10.0 mi NW 6.9 mph - N/A   Clear
6:35 AM 10.6 °F -3.1 °F 3.6 °F 73% 30.23 in 10.0 mi WNW 10.4 mph 16.1 mph N/A   Clear
6:55 AM 9.9 °F -2.2 °F 2.7 °F 73% 30.25 in 10.0 mi NW 8.1 mph 16.1 mph N/A   Clear
7:15 AM 9.1 °F -4.0 °F 2.1 °F 73% 30.26 in 10.0 mi WNW 9.2 mph 16.1 mph N/A   Clear
7:35 AM 8.6 °F -5.5 °F 1.8 °F 74% 30.27 in 10.0 mi NW 10.4 mph - N/A   Clear
7:55 AM 8.2 °F -4.1 °F 1.0 °F 72% 30.28 in 10.0 mi NW 8.1 mph - N/A   Clear
8:15 AM 8.1 °F -5.3 °F 0.5 °F 71% 30.29 in 10.0 mi NW 9.2 mph 17.3 mph N/A   Clear
8:35 AM 8.1 °F -7.7 °F -0.0 °F 70% 30.30 in 10.0 mi WNW 12.7 mph 17.3 mph N/A   Clear
8:55 AM 8.2 °F -6.8 °F -0.0 °F 69% 30.31 in 10.0 mi WNW 11.5 mph - N/A   Clear
9:15 AM 8.4 °F -3.9 °F -0.0 °F 68% 30.32 in 10.0 mi NW 8.1 mph - N/A   Clear
9:35 AM 8.6 °F -5.5 °F -0.6 °F 66% 30.33 in 10.0 mi WNW 10.4 mph - N/A   Clear
9:55 AM 9.1 °F -4.9 °F -0.8 °F 64% 30.34 in 10.0 mi WNW 10.4 mph - N/A   Clear
10:15 AM 9.9 °F -4.0 °F -0.4 °F 63% 30.34 in 10.0 mi WNW 10.4 mph - N/A   Clear
10:35 AM 10.2 °F -3.5 °F -0.2 °F 63% 30.35 in 10.0 mi WNW 10.4 mph - N/A   Clear
10:55 AM 10.9 °F -3.4 °F -0.4 °F 60% 30.35 in 10.0 mi WNW 11.5 mph - N/A   Clear
11:15 AM 11.7 °F -3.2 °F -0.2 °F 59% 30.35 in 10.0 mi WNW 12.7 mph 17.3 mph N/A   Clear
11:35 AM 12.6 °F -1.4 °F 0.1 °F 58% 30.35 in 10.0 mi WNW 11.5 mph 17.3 mph N/A   Clear
11:55 AM 13.1 °F -0.7 °F 0.1 °F 56% 30.36 in 10.0 mi WNW 11.5 mph 16.1 mph N/A   Clear
12:15 PM 14.2 °F 1.4 °F 1.4 °F 57% 30.36 in 10.0 mi NW 10.4 mph 16.1 mph N/A   Clear
12:35 PM 14.5 °F 1.9 °F 0.9 °F 55% 30.36 in 10.0 mi NW 10.4 mph - N/A   Clear
12:55 PM 15.1 °F 1.8 °F 1.2 °F 54% 30.36 in 10.0 mi WNW 11.5 mph - N/A   Clear
1:15 PM 15.8 °F 2.7 °F 1.2 °F 53% 30.36 in 10.0 mi WNW 11.5 mph 17.3 mph N/A   Clear
1:35 PM 16.0 °F 2.3 °F 1.4 °F 53% 30.36 in 10.0 mi West 12.7 mph 16.1 mph N/A   Clear
1:55 PM 16.5 °F 3.0 °F 1.4 °F 52% 30.36 in 10.0 mi WNW 12.7 mph 16.1 mph N/A   Clear
2:15 PM 16.7 °F 4.5 °F 1.6 °F 52% 30.35 in 10.0 mi West 10.4 mph 16.1 mph N/A   Clear
2:35 PM 17.6 °F 5.7 °F 1.8 °F 50% 30.35 in 10.0 mi WNW 10.4 mph 19.6 mph N/A   Clear
2:55 PM 18.1 °F 5.0 °F 1.9 °F 49% 30.35 in 10.0 mi WNW 12.7 mph - N/A   Clear
3:15 PM 18.3 °F 7.3 °F 1.9 °F 49% 30.35 in 10.0 mi West 9.2 mph - N/A   Clear
3:35 PM 18.5 °F 6.1 °F 2.1 °F 49% 30.35 in 10.0 mi West 11.5 mph 17.3 mph N/A   Clear
3:55 PM 18.9 °F 5.9 °F 1.9 °F 48% 30.35 in 10.0 mi West 12.7 mph 20.7 mph N/A   Clear
4:15 PM 19.2 °F 7.7 °F 1.6 °F 46% 30.35 in 10.0 mi NW 10.4 mph - N/A   Clear
4:35 PM 19.0 °F 9.0 °F 2.1 °F 48% 30.35 in 10.0 mi WNW 8.1 mph 16.1 mph N/A   Clear
4:55 PM 18.9 °F 6.5 °F 1.6 °F 47% 30.35 in 10.0 mi WNW 11.5 mph 18.4 mph N/A   Clear
5:15 PM 18.9 °F 7.2 °F 2.3 °F 49% 30.35 in 10.0 mi WNW 10.4 mph 17.3 mph N/A   Clear
5:35 PM 18.9 °F 5.9 °F 1.9 °F 48% 30.35 in 10.0 mi West 12.7 mph - N/A   Clear
5:55 PM 18.5 °F 5.5 °F 2.3 °F 49% 30.36 in 10.0 mi WNW 12.7 mph 17.3 mph N/A   Clear
6:15 PM 18.3 °F 7.3 °F 1.6 °F 48% 30.37 in 10.0 mi WNW 9.2 mph - N/A   Clear
6:35 PM 18.0 °F 8.7 °F 1.2 °F 48% 30.38 in 10.0 mi WNW 6.9 mph - N/A   Clear
6:55 PM 17.4 °F 5.4 °F 0.9 °F 48% 30.38 in 10.0 mi WNW 10.4 mph - N/A   Clear
7:15 PM 16.7 °F 7.2 °F 0.9 °F 50% 30.38 in 10.0 mi NW 6.9 mph - N/A   Clear
7:35 PM 15.8 °F 6.1 °F 0.9 °F 52% 30.39 in 10.0 mi WNW 6.9 mph - N/A   Clear
7:55 PM 15.4 °F 6.8 °F 0.5 °F 52% 30.40 in 10.0 mi WNW 5.8 mph - N/A   Clear
8:15 PM 14.7 °F 7.3 °F 0.5 °F 53% 30.41 in 10.0 mi NW 4.6 mph - N/A   Clear
8:35 PM 14.0 °F 6.5 °F 0.1 °F 54% 30.41 in 10.0 mi WNW 4.6 mph - N/A   Clear
8:55 PM 13.6 °F 4.6 °F -0.0 °F 55% 30.42 in 10.0 mi WNW 5.8 mph - N/A   Clear
9:15 PM 13.1 °F 4.0 °F -0.2 °F 55% 30.42 in 10.0 mi WNW 5.8 mph - N/A   Clear
9:35 PM 12.2 °F 6.1 °F -0.4 °F 57% 30.42 in 10.0 mi WNW 3.5 mph - N/A   Clear
9:55 PM 11.8 °F 5.7 °F -0.4 °F 58% 30.43 in 10.0 mi WNW 3.5 mph - N/A   Clear
10:15 PM 11.1 °F 4.9 °F -0.0 °F 61% 30.43 in 10.0 mi West 3.5 mph - N/A   Clear
10:35 PM 10.2 °F - -0.0 °F 63% 30.44 in 10.0 mi Calm Calm - N/A   Clear
10:55 PM 10.4 °F - -0.4 °F 62% 30.44 in 10.0 mi Calm Calm - N/A   Clear
11:15 PM 9.5 °F - -0.4 °F 64% 30.44 in 10.0 mi Calm Calm - N/A   Clear
11:35 PM 9.0 °F - -0.4 °F 66% 30.45 in 10.0 mi Calm Calm - N/A   Clear
11:55 PM 8.6 °F - -0.4 °F 67% 30.45 in 10.0 mi Calm Calm - N/A   Clear